TimeAKDT,TemperatureF,Dew PointF,Humidity,Sea Level PressureIn,VisibilityMPH,Wind Direction,Wind SpeedMPH,Gust SpeedMPH,PrecipitationIn,Events,Conditions,WindDirDegrees,DateUTC
12:53 AM,-5.1,-13.0,69,30.20,10.0,NW,6.9,-,N/A,,Scattered Clouds,320,2013-03-27 08:53:00
1:53 AM,-8.0,-14.1,75,30.22,10.0,WNW,5.8,-,N/A,,Scattered Clouds,300,2013-03-27 09:53:00
2:53 AM,-9.0,-15.0,75,30.23,10.0,WNW,3.5,-,N/A,,Scattered Clouds,290,2013-03-27 10:53:00
3:53 AM,-11.9,-17.0,78,30.24,10.0,Calm,Calm,-,N/A,,Scattered Clouds,0,2013-03-27 11:53:00
4:53 AM,-18.0,-22.0,82,30.26,10.0,Calm,Calm,-,N/A,,Scattered Clouds,0,2013-03-27 12:53:00
5:53 AM,-20.9,-27.0,73,30.27,10.0,Calm,Calm,-,N/A,,Scattered Clouds,0,2013-03-27 13:53:00
6:53 AM,-22.0,-27.9,74,30.29,10.0,Calm,Calm,-,N/A,,Scattered Clouds,0,2013-03-27 14:53:00
7:53 AM,-20.9,-26.0,77,30.29,10.0,Calm,Calm,-,N/A,,Scattered Clouds,0,2013-03-27 15:53:00
8:53 AM,-14.1,-18.0,82,30.31,10.0,Calm,Calm,-,N/A,,Scattered Clouds,0,2013-03-27 16:53:00
9:53 AM,-6.0,-11.9,75,30.30,10.0,Calm,Calm,-,N/A,,Scattered Clouds,0,2013-03-27 17:53:00
10:53 AM,-2.0,-11.9,63,30.30,10.0,Calm,Calm,-,N/A,,Scattered Clouds,0,2013-03-27 18:53:00
11:53 AM,3.0,-11.9,50,30.30,10.0,Variable,3.5,-,N/A,,Scattered Clouds,0,2013-03-27 19:53:00
12:53 PM,3.9,-11.0,50,30.29,10.0,Calm,Calm,-,N/A,,Scattered Clouds,0,2013-03-27 20:53:00
1:53 PM,7.0,-9.9,46,30.29,10.0,Calm,Calm,-,N/A,,Scattered Clouds,0,2013-03-27 21:53:00
2:53 PM,10.0,-8.0,44,30.28,10.0,Calm,Calm,-,N/A,,Scattered Clouds,0,2013-03-27 22:53:00
3:53 PM,12.9,-6.0,43,30.28,10.0,East,4.6,-,N/A,,Scattered Clouds,80,2013-03-27 23:53:00
4:53 PM,14.0,-5.1,43,30.28,10.0,ENE,6.9,-,N/A,,Scattered Clouds,70,2013-03-28 00:53:00
5:53 PM,15.1,-4.0,43,30.27,10.0,East,4.6,-,N/A,,Partly Cloudy,90,2013-03-28 01:53:00
6:53 PM,15.1,-2.9,45,30.27,10.0,SE,4.6,-,N/A,,Partly Cloudy,130,2013-03-28 02:53:00
7:53 PM,10.9,-4.0,51,30.27,10.0,East,3.5,-,N/A,,Partly Cloudy,80,2013-03-28 03:53:00
8:53 PM,6.1,-5.1,60,30.27,10.0,East,3.5,-,N/A,,Partly Cloudy,90,2013-03-28 04:53:00
9:53 PM,5.0,-7.1,58,30.26,10.0,SE,5.8,-,N/A,,Partly Cloudy,130,2013-03-28 05:53:00
10:53 PM,1.0,-8.0,66,30.26,10.0,Calm,Calm,-,N/A,,Partly Cloudy,0,2013-03-28 06:53:00
11:53 PM,1.9,-8.0,63,30.25,10.0,ESE,4.6,-,N/A,,Scattered Clouds,110,2013-03-28 07:53:00